Location: Unspecified
(40.5530°N, 74.2920°W)
Time: 00:10:53
(UTC+00:00)

Daily predictions for brighter satellites

Satellite Brightness Start Highest point End
(mag) Time Altitude Azimuth Time Altitude Azimuth Time Altitude Azimuth
Cosmos 2263 4.3 00:03:06 10° NNW 00:08:56 82° ENE 00:14:42 10° SSE
Cosmos 1939 Rocket 2.9 00:08:14 10° SSE 00:12:22 83° ENE 00:16:30 10° N
NOAA 11 4.2 00:11:39 10° SSE 00:17:08 77° ENE 00:22:38 10° N
Cosmos 2151 4.4 00:13:10 10° NNW 00:17:10 42° W 00:21:08 10° SSW
SJ 16-02 1.7 00:13:22 10° S 00:17:33 43° ESE 00:21:46 10° NNE
GPS 2-05 Rocket1 3.9 00:15:12 10° SW 00:17:38 22° SSE 00:20:02 10° ESE
FREGAT/IRIS 2.6 00:15:17 10° S 00:18:07 75° W 00:20:59 10° NNW
USA 186 1.3 00:21:39 10° SSE 00:23:55 43° ENE 00:26:07 10° N
Cosmos 1461 2.7 00:21:57 10° NNW 00:25:56 82° ENE 00:29:51 10° SSE
Cosmos 1656 Rocket 3.8 00:21:35 10° NNW 00:27:00 60° ENE 00:32:26 10° SE
USA 81 4.4 00:22:16 10° S 00:27:31 74° W 00:32:49 10° N
BREEZE M DEB (TANK) 3.1 00:23:52 10° WSW 00:28:22 43° NNW 00:30:40 10° NE
HJ-1C 4.5 00:26:02 10° S 00:29:15 46° W 00:32:29 10° NNW
Resurs 1-3 4.4 00:26:30 10° SE 00:30:24 33° ENE 00:34:20 10° N
Cosmos 1937 Rocket 3.5 00:25:22 10° SSW 00:30:37 84° ESE 00:35:52 10° NNE
Cosmos 990 Rocket 4.1 00:26:05 10° SSW 00:31:13 81° WNW 00:36:23 10° NNE
Cosmos 2279 Rocket 4.2 00:27:43 10° N 00:34:00 79° W 00:40:14 10° S
DELTA 2 R/B(2) 4.1 00:33:06 10° W 00:35:11 78° S 00:39:39 11° E
COBE Rocket 3.7 00:32:49 10° NNE 00:37:28 74° E 00:42:10 10° S
Cosmos 1805 Rocket 3.9 00:34:47 10° N 00:39:02 45° ENE 00:43:17 10° SSE
Cosmos 1455 2.9 00:37:00 10° SSW 00:40:41 56° W 00:44:23 10° N
SJ-11-01 4.3 00:36:13 10° SSE 00:40:54 82° ENE 00:45:39 10° N
COSMOS 2455 3.9 00:36:36 10° SW 00:42:25 49° NW 00:48:17 10° NNE
PSLV R/B 3.2 00:41:02 10° SW 00:43:50 46° SSE 00:45:45 18° E
Cosmos 724 4.4 00:38:54 10° NNW 00:45:06 72° ENE 00:50:24 14° SE
ARGOS 3.6 00:42:00 11° SE 00:46:47 45° ENE 00:51:51 10° N
Resurs 01 Rocket 2.0 00:48:47 15° SE 00:52:10 45° ENE 00:56:23 10° N
USA 234 3.4 00:46:16 10° NE 00:52:50 82° NW 00:59:22 10° SW
Meteor 1-27 4.2 00:47:47 10° S 00:53:36 80° E 00:59:24 10° NNE
Cosmos 1242 Rocket 2.4 00:52:21 10° N 00:55:52 89° ENE 00:59:01 12° S
Spot 2 Rocket 4.3 00:53:28 18° ESE 00:56:37 35° ENE 01:01:11 10° N
Meteor 2-2 Rocket 4.2 00:54:21 10° S 01:00:01 84° E 01:05:50 10° N
Cosmos 1867 3.5 00:55:30 10° SSW 01:00:53 67° ESE 01:06:21 10° NE
Cosmos 1825 2.4 00:58:51 10° NNW 01:02:38 71° W 01:06:24 10° S
Meteor 2-3 Rocket 3.8 00:57:31 10° N 01:03:07 83° W 01:08:43 10° S
Lacrosse 5 1.8 00:59:22 10° SW 01:04:26 89° NW 01:09:32 10° NE
Cosmos 2084 3.5 01:01:31 10° SW 01:06:05 86° NW 01:10:31 10° NE
COSMOS 2406 3.8 01:01:54 10° SSE 01:06:58 33° ESE 01:12:02 10° NE
Cosmos 158 Rocket 4.2 01:01:44 10° NNW 01:06:59 72° WSW 01:11:38 12° S
Cosmos 2298 Rocket 4.2 01:04:15 10° SSW 01:09:34 80° WNW 01:14:56 10° NNE
Cosmos 1818 3.6 01:04:11 10° NNW 01:09:41 82° WSW 01:13:29 20° SSE
MTI 3.6 01:07:11 10° NNE 01:10:23 77° ESE 01:13:00 14° S
Cosmos 1943 Rocket 4.5 01:07:15 10° NW 01:11:20 21° W 01:15:22 10° SSW
Cosmos 2221 4.5 01:08:36 10° SW 01:12:28 31° WNW 01:16:23 10° NNW
H-2A R/B 1.9 01:12:22 18° SSE 01:16:10 80° ENE 01:21:08 10° N
Atlas Centaur 2 3.4 01:14:55 10° SW 01:16:58 13° SSW 01:17:43 13° S
ATLAS 3B R/B 4.2 01:12:40 10° NNW 01:17:46 23° NE 01:21:53 13° E
Cosmos 1408 4.3 01:14:56 10° NNW 01:18:08 31° W 01:21:19 10° SSW
EO 1 Del DPAF 3.6 01:16:18 10° NNE 01:19:54 39° E 01:20:22 38° ESE
Cosmos 1151 Rocket 3.6 01:19:33 33° ESE 01:20:34 37° E 01:24:37 10° NNE
MetOp-A 4.1 01:21:36 24° SSE 01:24:53 73° ENE 01:30:14 10° N
Milstar 3 4.0 01:22:02 10° SW 01:28:58 24° S 01:30:14 23° SSE
Sich 1 3.3 01:26:48 10° NNW 01:31:11 67° W 01:34:03 21° S
USA 238 DEB 4.2 01:26:52 10° NNW 01:33:51 51° NE 01:37:26 29° ESE
USA 238 4.2 01:26:59 10° NNW 01:33:57 51° NE 01:37:31 29° ESE
ATLAS 2AS CENTAUR R/B 3.0 01:30:59 10° SSW 01:38:37 59° ESE 01:46:32 10° NE
Cosmos 1869 4.3 01:46:23 13° SSW 01:49:41 44° W 01:53:31 10° N
SPOT 1/Viking Rocket 4.1 01:54:32 40° E 01:55:09 41° ENE 02:00:02 10° N
SJ 16-02 4.3 01:53:21 10° WSW 01:56:21 18° WNW 01:59:23 10° NNW
CZ-2C R/B 2.7 01:55:43 58° SSE 01:56:38 79° ENE 02:01:28 10° N
Cosmos 1328 Rocket 3.8 01:55:26 31° SSW 01:57:25 66° W 02:01:46 10° N
Cosmos 1125 Rocket 3.7 01:54:12 10° SSW 01:59:28 70° WNW 02:04:48 10° NNE
S3M 4.1 01:54:13 10° N 02:00:11 54° E 02:01:22 47° ESE
CZ-2C R/B 2.9 01:57:21 10° NNE 02:02:21 47° E 02:02:21 47° E
NOSS 3-2 (A) 4.2 01:57:13 10° NNW 02:04:44 62° NE 02:07:49 40° ESE
Cosmos 1633 Rocket 4.1 02:02:05 10° NNW 02:06:16 42° W 02:07:54 29° SW
Terra 3.1 02:08:32 27° ENE 02:08:32 27° ENE 02:12:04 10° N
Lacrosse 4 Rocket 1.4 02:10:58 79° W 02:11:06 80° WNW 02:15:30 10° NNE
Cosmos 2228 Rocket 3.0 02:12:10 83° ENE 02:12:10 83° ENE 02:16:39 10° N
ADEOS Rocket 3.4 02:04:55 10° NNE 02:12:05 83° ESE 02:16:47 26° S
Cosmos 1655 Rocket 3.9 02:14:04 45° S 02:16:09 86° E 02:22:24 10° N
NOSS 3-2 (C) 4.4 02:10:15 10° NNW 02:17:40 55° NE 02:20:19 40° E
BREEZE-M DEB (TANK) 4.4 01:58:02 10° NW 02:18:21 53° SW 02:20:39 39° S
Thor Agena Rocket 3.6 02:14:58 10° NNE 02:20:12 79° WNW 02:21:37 49° SSW
IGS 5A 4.3 02:22:09 41° NNE 02:22:09 41° NNE 02:25:07 10° N
Cosmos 1833 Rocket 3.3 02:23:00 40° ENE 02:23:00 40° ENE 02:26:58 10° NE
SPOT 5 3.3 02:22:32 46° NNE 02:22:32 46° NNE 02:25:53 10° N
CZ-3B R/B 4.1 02:18:45 10° SW 02:19:52 14° SSW 02:19:52 14° SSW
Cosmos 1633 3.9 02:21:56 10° N 02:24:18 38° NNW 02:24:18 38° NNW
Cosmos 1933 Rocket 3.8 02:21:16 10° NNW 02:25:21 64° WNW 02:25:21 64° WNW
Cosmos 1340 Rocket 4.3 02:27:26 32° NNE 02:27:26 32° NNE 02:29:42 10° NNE
Resurs 01 Rocket 4.2 02:26:20 11° SW 02:28:52 16° W 02:31:34 10° NW
NOSS 3-4 (A) 3.5 02:38:46 61° ENE 02:38:46 61° ENE 02:44:10 10° NE
NOSS 3-4 (C) 3.5 02:38:57 59° ENE 02:38:57 59° ENE 02:44:16 10° NE
Cosmos 1980 Rocket 3.4 02:37:06 10° N 02:41:54 30° NE 02:41:54 30° NE
CENTAUR R/B 3.6 02:34:54 10° NNW 02:42:42 52° NE 02:44:59 43° E
ERS-1 Rocket 3.2 02:43:15 61° W 02:43:15 61° W 02:48:06 10° NNW
ATLAS 5 CENTAUR R/B 3.9 02:39:03 10° NNW 02:43:39 24° NE 02:44:58 22° ENE
Cosmos 1269 Rocket 4.3 02:38:28 10° NNW 02:43:41 59° WSW 02:43:41 59° WSW
Lacrosse 5 4.2 02:44:04 10° WNW 02:48:01 22° NNW 02:51:58 10° NNE
SL-16 R/B 4.4 02:53:44 10° NNE 02:56:41 14° NE 02:57:19 14° NE
ATLAS CENTAUR R/B 3.5 02:56:35 10° NNW 02:59:57 25° NNE 02:59:57 25° NNE
Cosmos 1656 3.9 02:56:02 10° NNW 03:00:48 61° WNW 03:00:48 61° WNW
ATLAS CENTAUR R/B 3.7 02:58:12 10° NW 03:06:52 40° WSW 03:06:52 40° WSW
Cosmos 2315 Rocket 4.0 03:01:43 10° N 03:07:26 74° NNE 03:07:26 74° NNE
Cosmos 2266 Rocket 4.2 03:07:39 59° WSW 03:08:11 62° W 03:14:19 10° N
ATLAS 3B R/B 2.5 03:02:36 10° NW 03:09:08 86° NW 03:09:08 86° NW
Cosmos 2082 Rocket 2.7 03:12:27 53° NNE 03:12:27 53° NNE 03:16:46 10° NNE
Cosmos 2369 4.1 03:07:16 10° NNW 03:12:07 61° NW 03:12:07 61° NW
Cosmos 2278 4.1 03:09:41 10° NNW 03:14:23 62° NNW 03:14:23 62° NNW
Cosmos 1697 Rocket 3.1 03:10:31 10° NNW 03:15:02 59° NNW 03:15:02 59° NNW
ATLAS 2AS CENTAUR R/B 4.3 03:22:43 10° WSW 03:30:02 39° NW 03:37:29 10° NNE
Mayak 1.4 03:35:44 10° NNE 03:36:28 15° NNE 03:36:28 15° NNE
Terra 3.8 03:47:25 24° WNW 03:47:25 24° WNW 03:49:52 10° NW
Cosmos 2322 Rocket 3.7 03:48:45 10° N 03:52:40 30° NE 03:52:40 30° NE
Cosmos 2360 Rocket 3.9 04:16:43 10° N 04:20:34 25° NE 04:20:34 25° NE
Cosmos 1980 Rocket 3.9 04:20:53 10° NW 04:23:40 26° WNW 04:23:40 26° WNW
ATLAS 5 CENTAUR R/B 3.5 04:22:54 10° NW 04:26:29 40° NW 04:26:29 40° NW
CENTAUR R/B 3.9 04:25:50 10° NW 04:32:09 41° W 04:32:09 41° W
ATLAS CENTAUR R/B 4.4 04:35:18 10° NW 04:36:09 15° NW 04:36:09 15° NW
SL-16 R/B 3.6 04:35:58 10° NNW 04:39:10 35° NNW 04:39:10 35° NNW
BREEZE-M DEB (TANK) 4.5 05:08:41 66° W 05:10:03 80° NNW 05:46:42 10° ENE
Cosmos 2333 Rocket 4.1 05:08:33 10° N 05:13:01 22° NE 05:13:34 22° ENE
Cosmos 2322 Rocket 4.2 05:32:41 10° NW 05:34:28 19° NW 05:34:28 19° NW
Cosmos 2219 Rocket 3.4 05:44:18 10° N 05:48:54 39° NE 05:48:54 39° NE
SL-16 R/B 3.5 05:59:53 37° E 06:00:38 39° ENE 06:06:18 10° N
Cosmos 2360 Rocket 4.0 06:00:14 10° NW 06:02:19 22° NW 06:02:19 22° NW
Cosmos 2227 Rocket 4.1 06:07:08 21° E 06:07:08 21° E 06:10:31 10° NE
H-2A R/B 4.4 06:10:37 21° N 06:10:37 21° N 06:12:01 10° N
COSMOS 2428 3.5 06:07:16 10° NNW 06:11:25 47° N 06:11:25 47° N
Resurs 1-4 Rocket 3.1 06:17:39 10° NNE 06:21:36 40° ENE 06:21:36 40° ENE
Cosmos 2341 Rocket 4.1 06:29:18 75° NE 06:29:18 75° NE 06:35:15 10° N
Nadezhda 3 Rocket 4.4 06:24:15 10° NNW 06:29:09 55° NW 06:29:09 55° NW
Cosmos 2237 Rocket 3.2 06:33:11 10° N 06:38:33 43° ENE 06:40:11 34° E
Cosmos 2297 Rocket 2.9 06:44:32 44° E 06:44:32 44° E 06:49:34 10° NE
CZ-2D R/B 2.3 06:49:34 10° NNE 06:54:23 71° NNE 06:54:23 71° NNE
Cosmos 2333 Rocket 3.2 06:52:03 10° NNW 06:55:32 36° NW 06:55:32 36° NW
Cosmos 1959 Rocket 4.4 06:57:33 73° SE 06:58:00 77° E 07:04:13 10° N
SL-16 R/B 4.2 06:55:25 10° N 07:00:10 26° NE 07:04:53 10° ESE
CBERS-1 4.2 06:55:38 10° NNE 07:00:07 68° NNE 07:00:07 68° NNE
ASTEX 1 3.7 06:59:29 10° N 07:03:38 62° N 07:03:38 62° N
USA 267 3.3 07:01:09 10° NE 07:07:40 72° NW 07:08:51 59° W
SeaSat 1 4.0 07:07:37 10° ESE 07:12:02 34° NE 07:16:27 10° N
Cosmos 2218 Rocket 3.8 07:11:55 75° SW 07:12:26 82° W 07:18:48 10° N
Okean 2 4.4 07:14:36 45° N 07:14:36 45° N 07:17:34 10° N
Cosmos 1066 Rocket 4.0 07:14:32 84° W 07:14:35 84° W 07:20:10 10° N
Cosmos 921 Rocket 3.6 07:15:41 58° NE 07:15:41 58° NE 07:19:22 10° NNE
IRS-1D 3.5 07:09:39 10° NNE 07:14:51 88° NNE 07:14:51 88° NNE
SL-8 Rocket 4.0 07:15:08 64° W 07:15:25 65° W 07:21:44 10° N
Cosmos 2366 rocket 3.8 07:17:48 72° SW 07:18:24 80° W 07:24:38 10° N
Cosmos 2082 3.9 07:18:44 54° SE 07:19:28 59° ESE 07:24:59 10° NNE
CZ-4B R/B 3.9 07:22:51 16° N 07:22:51 16° N 07:23:35 10° N
CZ-4C R/B 4.2 07:19:19 12° SE 07:21:21 15° ESE 07:24:12 10° ENE
IRS-P3 4.1 07:20:30 10° N 07:25:49 67° WNW 07:25:54 67° W
Cosmos 332 Rocket 3.6 07:31:54 89° SSW 07:31:56 90° WNW 07:36:48 10° NNE
Cosmos 2219 Rocket 3.9 07:28:39 10° NW 07:30:36 19° WNW 07:30:36 19° WNW
NPP 4.3 07:29:44 10° N 07:34:41 38° WNW 07:34:41 38° WNW
ADEOS II 2.3 07:31:37 10° NNE 07:36:51 64° E 07:38:21 44° SSE
NOSS 0 Rocket 4.3 07:32:43 10° NW 07:37:56 44° W 07:37:56 44° W
CZ-2D R/B 4.0 07:35:35 10° NNE 07:39:57 57° E 07:40:41 50° SE
UNKNOWN OBJECT B 3.7 07:36:22 10° NNE 07:40:07 43° E 07:40:38 40° ESE
USA 234 3.7 07:34:15 10° ESE 07:40:40 61° NE 07:47:06 10° NW
Cosmos 1378 4.0 07:40:48 44° E 07:40:56 44° E 07:44:30 10° NNE
ARIANE 5 R/B 2.4 07:37:28 10° NNE 07:42:44 82° WNW 07:43:40 61° SSW
SL-16 R/B 3.3 07:44:58 32° W 07:44:58 32° W 07:49:47 10° NNW
NOSS 2-1 (C) 4.2 07:44:33 36° ESE 07:44:33 36° ESE 07:47:43 10° NE
Cosmos 972 Rocket 4.0 07:39:58 10° NNW 07:45:05 83° ENE 07:48:41 22° SSE
Cosmos 2219 4.2 07:44:56 30° WNW 07:45:37 31° WNW 07:50:35 10° N
NOSS 2-1 (D) 4.0 07:46:54 39° ESE 07:46:54 39° ESE 07:50:13 10° NE
Meteor 1-22 Rocket 4.3 07:41:04 10° N 07:47:13 87° W 07:50:21 30° S
Cosmos 2227 Rocket 2.4 07:48:57 46° W 07:49:58 53° WNW 07:55:31 10° NNE
BREEZE-M DEB (TANK) 4.4 07:51:02 10° N 07:51:53 12° NNE 07:52:52 10° NE
Cosmos 1842 3.1 07:51:54 83° ESE 07:51:56 83° E 07:55:49 10° N
Cosmos 44 3.1 07:47:26 10° NNW 07:52:19 89° NE 07:56:52 10° SSE
Cosmos 1980 4.0 07:47:06 10° NW 07:52:09 44° W 07:52:09 44° W
Cosmos 1025 Rocket 3.0 07:54:14 65° W 07:54:23 66° W 07:58:46 10° N
SL-08 R/B 4.1 07:55:23 37° WNW 07:55:23 37° WNW 07:59:19 10° NNW
Cosmos 1727 Rocket 4.0 07:48:36 10° NNW 07:54:43 60° W 07:56:45 41° SSW
Cosmos 371 Rocket 3.7 07:57:44 43° W 07:58:09 44° WNW 08:02:46 10° N
H-2A R/B 3.5 07:54:06 10° NNE 07:58:18 43° E 08:00:27 24° SSE
OAO 3 Rocket 3.8 08:00:10 39° S 08:00:10 39° S 08:04:24 10° ESE
Cosmos 1354 Rocket 3.9 07:54:49 10° NNW 08:00:04 85° WSW 08:04:41 13° SSE
Lacrosse 5 2.4 07:56:35 10° NW 08:01:36 58° NE 08:06:35 10° ESE
Cosmos 1536 Rocket 4.3 08:02:04 37° WNW 08:02:04 37° WNW 08:06:04 10° N
Resurs 1-4 Rocket 3.5 07:58:12 10° NNW 08:02:13 23° WNW 08:02:41 22° WNW
Genesis I 3.3 08:02:30 62° W 08:02:50 65° NW 08:06:56 10° NNE
Cosmos 1441 Rocket 3.2 08:01:03 10° N 08:04:58 78° E 08:06:24 37° SSE
Cosmos 1000 Rocket 4.4 08:01:39 10° N 08:07:49 89° E 08:14:00 10° S
Lacrosse 5 rocket 4.2 08:10:11 10° N 08:11:33 12° NNE 08:12:56 10° NE
USA 229 DEB 4.1 08:04:56 10° NW 08:11:44 43° WSW 08:18:42 10° S
USA 229 4.1 08:05:01 10° NW 08:11:51 43° WSW 08:18:50 10° S
Cosmos 1606 Rocket 4.2 08:07:36 10° N 08:12:01 57° E 08:16:24 10° SSE
NOSS 3-1 (A) 4.0 08:06:41 10° NW 08:14:28 76° WSW 08:23:09 10° SSE
Spot 4 Rocket 4.4 08:09:40 10° N 08:14:37 47° WNW 08:16:12 36° WSW
Geosat 4.3 08:12:00 10° NNE 08:16:54 53° WNW 08:18:45 34° WSW
Shenzhou-11 Module 3.0 08:19:23 33° SE 08:19:23 33° SE 08:21:37 10° E
Cosmos 1758 3.5 08:15:04 10° N 08:19:10 72° E 08:23:10 10° SSE
Cosmos 1821 Rocket 4.0 08:15:29 25° SSW 08:19:24 72° W 08:25:49 10° N
ADEOS 3.8 08:16:10 10° NNE 08:21:24 71° ESE 08:25:33 16° S
Cosmos 2237 Rocket 3.2 08:17:44 10° NW 08:21:54 26° W 08:21:54 26° W
NOSS 3-1 (C) 4.3 08:14:56 10° NW 08:22:24 50° WSW 08:30:39 10° S
Cosmos 2228 3.6 08:19:53 10° N 08:24:10 58° E 08:28:27 10° SSE
NOSS 2-1 (E) 3.0 08:25:08 46° SW 08:26:06 80° NW 08:29:56 10° NNE
Cosmos 44 Rocket 3.8 08:22:44 10° NNW 08:27:40 62° NE 08:32:25 10° SE
Cosmos 1726 Rocket 3.9 08:23:30 10° N 08:27:57 69° E 08:32:22 10° SSE
Milstar 3 Cent rocket 4.1 08:23:50 25° SW 08:27:59 36° S 08:41:41 10° SE
Cosmos 2297 Rocket 3.4 08:26:21 22° W 08:28:27 27° NW 08:33:12 10° N
Cosmos 304 Rocket 4.0 08:28:16 31° SW 08:30:16 53° WNW 08:35:00 10° N
CZ-3 R/B 4.2 07:44:29 10° WSW 08:32:17 57° SSW 08:43:22 10° ESE
Abrixas rocket 2.3 08:33:52 44° SSW 08:33:52 44° SSW 08:36:37 10° SE
CZ-2D R/B 4.1 08:31:58 10° NNW 08:34:14 13° WNW 08:35:43 11° WNW
Cosmos 1503 Rocket 4.5 08:30:03 10° NW 08:34:46 37° WSW 08:37:48 19° SSW
IDEFIX/ARIANE 42P 3.8 08:32:31 10° NNE 08:37:27 41° E 08:42:22 10° SSE
Cosmos 1934 Rocket 3.9 08:35:54 13° SSW 08:41:29 72° W 08:47:38 10° N
Cosmos 1707 2.6 08:41:29 17° S 08:44:25 83° W 08:48:18 10° N
SL-16 R/B 2.4 08:39:04 10° NW 08:44:30 47° WSW 08:49:52 10° S
Cosmos 2344 4.3 08:38:26 10° S 08:45:44 51° ESE 08:53:17 10° NE
SeaSat 1 3.1 08:45:08 10° S 08:49:30 32° WSW 08:53:54 10° NW
Cosmos 1470 2.8 08:46:10 10° NNW 08:49:58 55° W 08:53:46 10° S
Cosmos 968 Rocket 4.2 08:47:45 10° NW 08:52:22 32° W 08:56:58 10° SSW
Meteor 2-12 Rocket 4.5 08:54:00 10° SSW 09:00:00 62° W 09:06:01 10° N
Cosmos 2058 Rocket 3.0 08:56:06 10° N 09:00:37 78° W 09:05:04 10° S
Meteor 1-28 Rocket 3.5 09:02:33 10° S 09:06:08 44° W 09:09:44 10° NNW
Cosmos 1953 2.5 09:02:57 10° NNW 09:06:47 47° W 09:10:35 10° SSW
PSLV R/B 3.7 09:03:53 10° N 09:08:06 57° WNW 09:12:21 10° SSW
CZ-4C R/B 2.1 09:04:30 14° SW 09:08:51 69° NW 09:14:42 10° NNE
Okean 1-7 Rocket 4.4 09:08:48 12° SW 09:12:26 33° WNW 09:16:33 10° NNW
Cosmos 1892 Rocket 4.2 09:10:42 11° SW 09:14:30 36° WNW 09:18:32 10° N
ADEOS II 3.8 09:12:44 10° NNW 09:16:00 17° WNW 09:19:16 10° W
Cosmos 2263 Rocket 2.2 09:13:23 10° SSW 09:18:58 85° ESE 09:24:34 10° NNE
Hubble Space Telescope 3.1 09:21:09 10° SSW 09:22:54 12° S 09:24:38 10° SE
USA 234 3.7 09:17:49 10° SSE 09:23:50 39° SW 09:29:52 10° WNW
SL-4 R/B 3.4 09:24:59 10° SSW 09:28:54 36° SE 09:33:06 10° ENE
Cosmos 1777 Rocket 4.2 09:23:56 10° NNW 09:28:59 51° WSW 09:33:59 10° S
Cosmos 2100 Rocket 4.3 09:24:46 10° S 09:30:59 75° E 09:37:18 10° N
Cosmos 2084 3.3 09:27:33 10° NW 09:31:40 87° SW 09:35:39 10° SSE
CZ-2C R/B 2.8 09:27:32 10° NNE 09:32:04 61° E 09:36:37 10° S
Cosmos 1447 Rocket 4.5 09:27:12 10° NNW 09:33:17 65° W 09:39:20 10° S
H-2A R/B 4.3 09:30:32 10° NNW 09:33:24 17° WNW 09:36:12 10° WSW
BREEZE-M DEB (TANK) 4.0 09:29:20 10° WSW 09:45:26 68° NNW 09:49:55 10° NE
